Date String (YYYY-MM-DD hh:mm:ss) UTC,Instrument flags,Ambient pressure (hPa),Sample flow (lpm),Bypass flow (lpm),Sample temperature (°C),Ambient temperature (°C),ASC tube jacket temperature (°C),LED temperature (°C),Box temperature (°C),Sample RH (%),Span deviation,Mass concentration (μg/m³),Mass concentration (μg/m³),Mass concentration (μg/m³)
DateTimeUTC,F1_M11,P_M11,Q1_M11,Q2_M11,T1_M11,T2_M11,T3_M11,T4_M11,T5_M11,U1_M11,ZSPAN_M11,X0_M11,X2_M11,X1_M11
2022-07-01 17:00:00,,0831.0,4.99,0.00,29.4,27.3,00.0,38.2,31.2,29.1,0000.0,0009.39,0004.30,0003.63
2022-07-01 17:01:00,,0831.0,5.00,0.00,29.4,27.4,00.0,38.2,31.2,29.0,0000.0,0009.17,0004.29,0003.61
2022-07-01 17:02:00,,0831.1,5.01,0.00,29.4,27.6,00.0,38.2,31.2,29.2,0000.0,0008.38,0004.25,0003.59
2022-07-01 17:03:00,,0831.0,4.99,0.00,29.4,27.8,00.0,38.2,31.3,29.1,0000.0,0008.53,0004.29,0003.60
2022-07-01 17:04:00,,0831.0,5.00,0.00,29.4,27.9,00.0,38.2,31.3,29.3,0000.0,0008.60,0004.31,0003.61
2022-07-01 17:05:00,,0831.0,4.99,0.00,29.4,28.0,00.0,38.2,31.3,29.1,0000.0,0008.55,0004.30,0003.60
2022-07-01 17:06:00,,0831.0,4.99,0.00,29.4,28.2,00.0,38.2,31.4,29.2,0000.0,0008.65,0004.32,0003.63
2022-07-01 17:07:00,,0831.0,5.00,0.00,29.4,28.3,00.0,38.2,31.4,29.2,0000.0,0008.63,0004.34,0003.65
2022-07-01 17:08:00,,0831.0,5.00,0.00,29.5,28.4,00.0,38.2,31.4,29.3,0000.0,0008.04,0004.35,0003.68
2022-07-01 17:09:00,,0831.0,5.00,0.00,29.5,28.5,00.0,38.2,31.5,29.4,0000.0,0008.16,0004.39,0003.72
2022-07-01 17:10:00,,0831.0,5.00,0.00,29.5,28.5,00.0,38.3,31.5,29.9,0000.0,0008.39,0004.45,0003.77
2022-07-01 17:11:00,,0831.0,5.00,0.00,29.6,28.6,00.0,38.3,31.6,29.3,0000.0,0008.80,0004.50,0003.80
2022-07-01 17:12:00,,0831.0,5.00,0.00,29.6,28.2,00.0,38.2,31.5,29.2,0000.0,0009.15,0004.54,0003.83
2022-07-01 17:13:00,,0831.0,5.00,0.00,29.5,27.5,00.0,38.2,31.4,29.5,0000.0,0009.71,0004.60,0003.88
2022-07-01 17:14:00,,0831.0,5.00,0.00,29.5,27.2,00.0,38.2,31.3,29.4,0000.0,0010.00,0004.66,0003.93
2022-07-01 17:15:00,,0831.0,5.00,0.00,29.4,27.2,00.0,38.2,31.2,29.4,0000.0,0009.97,0004.68,0003.97
2022-07-01 17:16:00,,0831.0,5.00,0.00,29.4,27.3,00.0,38.2,31.2,29.9,0000.0,0010.04,0004.73,0004.02
2022-07-01 17:17:00,,0831.0,5.00,0.00,29.4,27.4,00.0,38.2,31.2,30.0,0000.0,0009.95,0004.73,0004.04
2022-07-01 17:18:00,,0831.0,4.99,0.00,29.3,27.6,00.0,38.1,31.2,29.9,0000.0,0009.97,0004.77,0004.06
2022-07-01 17:19:00,,0831.0,5.00,0.00,29.4,27.7,00.0,38.1,31.3,30.0,0000.0,0010.14,0004.85,0004.09
2022-07-01 17:20:00,,0831.0,5.00,0.00,29.4,27.9,00.0,38.2,31.3,29.8,0000.0,0010.16,0004.87,0004.09
2022-07-01 17:21:00,,0831.0,5.00,0.00,29.4,28.0,00.0,38.2,31.3,29.6,0000.0,0009.99,0004.88,0004.10
2022-07-01 17:22:00,,0831.0,4.99,0.00,29.4,28.1,00.0,38.2,31.3,29.7,0000.0,0009.76,0004.91,0004.13
2022-07-01 17:23:00,,0831.0,4.99,0.00,29.4,28.2,00.0,38.2,31.4,29.8,0000.0,0009.73,0004.94,0004.17
2022-07-01 17:24:00,,0831.0,5.01,0.00,29.4,28.3,00.0,38.2,31.4,29.8,0000.0,0009.14,0004.95,0004.20
2022-07-01 17:25:00,,0831.1,5.02,0.00,29.5,28.4,00.0,38.2,31.5,29.6,0000.0,0008.88,0004.96,0004.21
2022-07-01 17:26:00,,0831.1,5.00,0.00,29.5,28.5,00.0,38.2,31.5,29.7,0000.0,0008.85,0004.95,0004.22
2022-07-01 17:27:00,,0831.0,5.00,0.00,29.5,28.6,00.0,38.2,31.5,29.8,0000.0,0008.84,0004.93,0004.22
2022-07-01 17:28:00,,0830.9,5.00,0.00,29.6,28.1,00.0,38.2,31.5,29.6,0000.0,0008.91,0004.91,0004.22
2022-07-01 17:29:00,,0830.9,5.00,0.00,29.5,27.4,00.0,38.2,31.3,30.0,0000.0,0008.80,0004.86,0004.20
2022-07-01 17:30:00,,0830.9,4.99,0.00,29.5,27.1,00.0,38.1,31.3,29.7,0000.0,0009.59,0004.83,0004.18
2022-07-01 17:31:00,,0830.9,5.00,0.00,29.4,27.1,00.0,38.1,31.2,29.6,0000.0,0009.58,0004.79,0004.16
2022-07-01 17:32:00,,0830.9,5.00,0.00,29.3,27.2,00.0,38.1,31.1,30.0,0000.0,0009.64,0004.79,0004.14
2022-07-01 17:33:00,,0830.9,5.01,0.00,29.3,27.4,00.0,38.1,31.2,29.8,0000.0,0009.65,0004.80,0004.13
2022-07-01 17:34:00,,0830.9,5.00,0.00,29.3,27.6,00.0,38.1,31.2,29.6,0000.0,0009.65,0004.84,0004.11
2022-07-01 17:35:00,,0830.9,5.00,0.00,29.3,27.7,00.0,38.1,31.2,29.7,0000.0,0009.78,0004.86,0004.10
2022-07-01 17:36:00,,0830.9,5.01,0.00,29.3,27.9,00.0,38.1,31.3,30.0,0000.0,0009.77,0004.83,0004.07
2022-07-01 17:37:00,,0830.9,5.01,0.00,29.4,28.0,00.0,38.1,31.3,29.9,0000.0,0009.84,0004.83,0004.05
2022-07-01 17:38:00,,0830.9,4.99,0.00,29.4,28.1,00.0,38.1,31.3,30.0,0000.0,0010.63,0004.88,0004.03
2022-07-01 17:39:00,,0830.9,4.99,0.00,29.4,28.3,00.0,38.1,31.4,30.2,0000.0,0011.29,0004.88,0004.02
2022-07-01 17:40:00,,0830.9,5.00,0.00,29.4,28.4,00.0,38.2,31.4,29.8,0000.0,0011.93,0004.93,0004.03
2022-07-01 17:41:00,,0830.9,5.00,0.00,29.5,28.5,00.0,38.2,31.5,29.6,0000.0,0011.17,0004.94,0004.05
2022-07-01 17:42:00,,0830.9,5.00,0.00,29.5,28.5,00.0,38.2,31.5,29.6,0000.0,0011.21,0004.93,0004.05
2022-07-01 17:43:00,,0830.8,5.00,0.00,29.5,28.4,00.0,38.2,31.5,29.3,0000.0,0011.21,0004.94,0004.05
2022-07-01 17:44:00,,0830.9,5.01,0.00,29.5,27.7,00.0,38.2,31.4,29.2,0000.0,0011.50,0004.95,0004.06
2022-07-01 17:45:00,,0830.9,4.99,0.00,29.5,27.2,00.0,38.1,31.2,29.0,0000.0,0011.39,0004.87,0004.04
2022-07-01 17:46:00,,0830.9,5.00,0.00,29.4,27.1,00.0,38.1,31.2,28.8,0000.0,0011.59,0004.80,0004.00
2022-07-01 17:47:00,,0830.8,5.00,0.00,29.3,27.1,00.0,38.1,31.1,28.7,0000.0,0012.07,0004.75,0003.97
2022-07-01 17:48:00,,0830.8,5.00,0.00,29.3,27.3,00.0,38.1,31.1,29.0,0000.0,0012.04,0004.75,0003.95
2022-07-01 17:49:00,,0830.8,5.00,0.00,29.3,27.4,00.0,38.1,31.1,29.8,0000.0,0011.28,0004.70,0003.94
2022-07-01 17:50:00,,0830.8,5.00,0.00,29.3,27.6,00.0,38.1,31.2,29.7,0000.0,0010.87,0004.74,0003.95
2022-07-01 17:51:00,,0830.8,5.00,0.00,29.3,27.8,00.0,38.1,31.2,30.3,0000.0,0010.70,0004.73,0003.94
2022-07-01 17:52:00,,0830.8,5.00,0.00,29.3,27.9,00.0,38.1,31.3,30.9,0000.0,0010.67,0004.74,0003.91
2022-07-01 17:53:00,,0830.7,5.00,0.00,29.3,28.1,00.0,38.1,31.3,31.0,0000.0,0010.63,0004.76,0003.91
2022-07-01 17:54:00,,0830.8,5.00,0.00,29.4,28.2,00.0,38.1,31.3,30.9,0000.0,0010.64,0004.78,0003.91
2022-07-01 17:55:00,,0830.8,5.01,0.00,29.4,28.3,00.0,38.1,31.4,30.3,0000.0,0010.70,0004.77,0003.92
2022-07-01 17:56:00,,0830.8,4.99,0.00,29.4,28.4,00.0,38.1,31.4,30.3,0000.0,0010.78,0004.79,0003.92
2022-07-01 17:57:00,,0830.8,5.01,0.00,29.5,28.5,00.0,38.2,31.5,30.2,0000.0,0011.26,0004.82,0003.93
2022-07-01 17:58:00,,0830.8,5.01,0.00,29.5,28.5,00.0,38.2,31.5,30.2,0000.0,0010.56,0004.82,0003.93
2022-07-01 17:59:00,,0830.8,5.00,0.00,29.5,28.1,00.0,38.1,31.4,30.0,0000.0,0010.58,0004.82,0003.94
